Theta_e
320 321 322 321 321 321 321 321 321 321 320 319 319 319 319 317 316 316 316 317 319 320 322 322 322 321 321 319 317 316 317 318 321 325 322 326 330 336 331 322 345 345 329 332
321 321 321 320 320 320 321 321 321 321 319 319 319 319 319 317 316 316 317 317 320 321 322 322 321 320 319 319 315 314 314 313 312 317 327 322 334 334 334 338 342 344 345 326
320 320 319 319 320 321 321 321 321 320 319 319 319 318 317 317 316 316 317 319 320 320 321 321 320 320 319 318 317 315 313 312 311 309 318 327 328 338 338 338 339 342 342 340
319 319 319 320 320 320 321 320 319 319 320 319 318 317 317 317 317 318 317 319 320 321 321 320 320 319 318 317 316 316 314 313 313 309 308 310 328 331 335 336 336 339 343 343
320 320 320 320 320 319 320 318 318 318 319 318 318 318 318 318 317 317 318 319 320 320 320 320 319 318 317 317 316 316 316 314 312 312 311 309 317 324 330 334 337 339 341 345
319 318 318 319 319 318 318 318 319 319 318 319 318 318 317 317 317 317 319 319 319 320 320 319 319 317 317 317 317 316 316 315 313 312 312 311 308 309 321 331 335 337 338 340
319 319 319 318 319 318 318 320 324 319 321 321 318 318 319 318 317 317 317 317 318 319 319 318 317 317 317 316 316 316 316 315 312 310 311 310 307 310 310 327 332 335 336 336
319 319 318 319 318 318 318 319 320 322 319 317 317 317 319 318 318 318 317 318 318 316 317 317 317 316 316 316 316 316 315 313 312 309 308 307 307 312 314 323 331 334 334 336
320 319 318 317 317 318 320 319 319 322 320 320 319 318 318 318 317 317 317 318 317 316 317 317 316 316 317 316 315 314 313 313 313 309 309 309 312 313 313 311 323 332 336 336
319 321 317 316 317 317 318 318 320 322 323 320 316 317 317 318 317 317 317 317 316 317 317 317 316 316 316 315 313 312 312 312 312 312 313 314 315 315 316 314 320 331 335 337
317 320 317 317 318 318 317 319 318 319 320 323 320 318 317 318 318 318 317 317 316 316 317 316 316 315 315 313 311 311 311 311 312 312 312 313 314 315 316 317 319 330 334 337
317 318 319 318 316 316 317 317 317 326 320 319 323 323 318 318 318 317 317 317 317 316 316 315 315 314 313 310 310 310 311 311 311 311 311 312 314 315 315 317 321 329 333 337
317 319 321 317 317 317 317 316 316 317 319 321 324 321 317 316 317 316 317 316 316 315 314 313 313 312 311 310 310 310 310 310 310 310 310 311 314 314 315 317 320 328 333 336
315 317 318 321 319 318 317 316 316 317 322 321 321 319 317 316 316 316 315 314 313 313 313 312 311 310 309 309 309 309 309 309 308 308 309 312 313 314 314 317 320 329 332 335
317 319 318 317 316 315 316 316 316 316 316 318 317 316 315 315 317 315 313 312 312 312 311 311 309 308 308 309 308 308 307 307 306 306 308 310 312 313 314 316 320 330 332 333
314 317 316 317 316 315 315 314 314 314 314 314 314 315 313 312 313 312 311 312 312 310 309 308 308 308 308 307 306 305 305 304 305 305 306 308 311 313 314 316 321 330 331 332
316 317 318 318 314 314 317 315 313 312 313 315 317 314 314 315 313 312 312 312 311 309 308 307 307 307 306 305 304 303 303 303 303 305 305 307 311 313 315 317 323 329 329 330
317 317 316 317 314 315 313 312 312 313 313 313 313 314 314 312 311 311 310 311 310 309 308 306 305 304 303 303 303 302 302 302 303 303 306 307 311 313 314 317 326 325 325 324
315 316 315 314 314 313 312 314 314 317 314 313 314 313 311 309 308 309 309 309 307 307 305 304 303 302 302 302 302 302 301 301 301 303 306 308 312 314 315 318 325 322 320 322
314 314 313 314 315 315 312 313 311 311 316 313 311 310 309 310 309 309 307 306 305 304 303 303 303 303 302 302 301 300 300 301 303 304 307 309 312 314 315 318 324 321 322 324
312 312 313 312 314 313 312 311 311 314 316 310 309 309 309 308 307 306 305 304 304 303 302 302 302 301 300 300 300 300 300 301 304 305 307 309 313 314 315 319 320 320 322 323
312 313 313 313 313 314 311 311 312 311 308 308 309 309 308 306 305 304 304 303 302 302 302 301 300 300 299 300 300 300 300 304 304 306 308 311 314 315 315 319 320 320 323 324
313 312 313 313 313 311 310 310 310 309 309 309 308 307 305 304 303 303 302 301 300 299 299 300 299 299 299 299 299 300 303 304 305 307 309 311 314 315 313 319 319 320 321 321
311 310 313 311 312 311 309 309 309 309 308 307 306 305 303 302 302 302 301 299 299 299 299 299 299 299 300 301 301 302 304 305 305 307 310 312 314 314 314 318 319 319 320 320
311 310 312 312 310 309 310 309 309 308 306 305 304 303 302 302 301 299 299 299 298 298 298 299 299 299 301 302 303 303 303 305 307 309 311 312 314 314 317 318 318 318 319 320
310 311 312 311 308 309 309 309 308 307 305 304 303 302 301 301 299 299 299 298 298 298 299 299 300 301 304 305 306 305 305 306 308 308 311 312 312 314 317 318 317 316 317 316
Wind_Speed
1 10 4 6 4 7 9 11 12 11 12 11 15 17 18 22 23 16 12 6 7 8 4 1 2 4 6 8 11 14 16 19 15 14 16 18 24 26 30 34 28 27 28 27
8 7 2 5 6 8 11 13 13 12 5 13 18 22 19 15 13 10 7 6 8 7 7 3 0 3 6 9 12 15 15 19 23 21 16 17 17 21 25 26 27 27 26 31
9 12 2 6 10 10 14 11 13 14 16 18 19 20 9 6 8 8 6 6 7 8 6 5 3 3 6 9 12 15 19 21 21 25 19 15 14 18 21 23 27 28 29 30
9 4 5 9 13 6 14 8 8 13 16 15 15 12 15 6 8 10 11 9 9 9 8 6 5 5 6 9 11 13 17 23 24 27 25 20 13 16 20 23 24 28 25 27
3 7 9 11 6 3 12 6 14 16 17 18 18 8 3 5 11 11 7 10 11 11 9 9 7 6 7 11 14 15 18 23 26 30 31 25 17 14 14 22 24 26 27 26
6 4 6 4 0 3 8 14 16 11 9 10 4 7 11 6 6 7 8 9 9 10 11 11 11 10 12 15 16 18 20 25 29 29 34 30 26 22 18 15 22 26 26 27
11 3 3 3 7 6 6 11 6 5 6 11 3 8 15 15 11 11 11 10 10 11 14 15 15 16 17 18 19 20 22 28 31 33 28 29 31 26 23 18 17 22 26 26
5 3 0 3 9 12 13 8 5 6 9 16 18 11 4 4 4 7 8 9 8 12 15 14 16 18 21 20 20 21 24 27 30 35 34 36 33 26 22 19 19 18 23 26
8 4 3 12 15 7 2 7 6 8 16 14 12 13 13 15 12 11 15 10 15 18 11 17 18 18 18 20 22 23 24 26 27 33 33 32 30 27 25 25 23 20 20 24
4 9 11 5 8 13 10 5 5 4 5 13 13 21 16 6 3 7 12 14 17 12 16 20 21 19 20 21 24 24 24 26 26 26 26 25 26 26 24 25 25 21 21 21
8 4 6 9 8 14 7 10 10 9 11 15 18 11 14 15 17 17 11 12 23 23 18 21 22 23 25 26 26 27 26 26 26 24 24 25 25 25 23 24 24 22 21 22
6 6 14 20 19 13 11 14 16 10 18 18 16 22 18 19 17 33 20 23 21 19 21 24 27 27 28 27 28 28 26 25 24 25 24 25 26 25 23 23 22 21 22 22
5 4 7 9 7 4 7 8 11 17 19 24 18 19 17 22 15 25 15 12 19 24 26 29 29 29 28 28 28 27 26 26 26 27 26 25 25 24 23 22 22 19 20 23
9 11 14 13 19 18 21 22 21 21 12 21 22 29 26 24 19 19 22 22 23 27 31 31 32 31 31 29 29 28 28 26 27 27 25 24 24 23 22 21 20 17 15 20
4 13 15 18 20 21 23 23 21 21 24 21 23 25 20 17 15 18 16 23 27 32 33 33 31 34 34 33 30 29 28 27 26 26 24 24 23 22 21 19 17 14 15 16
10 12 14 20 20 18 19 22 24 15 16 18 21 24 18 26 22 20 24 28 32 36 32 31 36 39 39 34 30 30 28 29 26 25 25 23 22 20 19 17 14 15 16 17
13 9 10 15 15 20 18 7 14 18 15 13 12 21 23 19 19 25 32 34 37 33 35 41 43 37 34 32 32 33 30 30 27 25 24 22 19 18 17 15 13 14 15 15
8 8 6 12 18 15 14 14 8 11 15 17 22 19 14 21 33 35 36 33 36 37 44 43 39 36 36 35 32 29 29 28 26 25 22 19 18 16 15 15 11 11 14 17
9 6 7 9 13 19 10 6 1 4 19 24 8 15 29 34 34 34 29 28 41 45 43 38 36 38 38 33 31 31 28 26 25 22 20 17 14 14 13 13 10 12 14 16
6 11 9 14 13 10 13 10 12 26 18 8 26 23 27 34 15 16 40 44 42 36 35 38 39 36 34 32 30 30 28 27 25 20 17 15 13 12 11 13 11 12 12 15
10 11 11 10 14 13 8 19 27 10 8 34 36 34 33 13 23 48 47 39 35 39 39 34 33 35 36 30 29 27 25 27 21 18 16 13 12 11 10 12 10 9 10 12
10 6 7 7 11 7 20 22 2 11 25 33 32 30 31 41 42 45 43 44 40 38 35 32 37 36 33 28 25 25 25 21 19 18 14 11 11 8 12 12 9 7 9 12
5 5 6 6 8 28 25 26 26 29 32 34 35 38 37 41 40 41 44 38 43 40 41 38 35 35 32 26 21 22 21 17 17 15 14 11 9 9 14 12 8 8 11 14
9 12 6 11 9 22 25 22 26 30 34 39 37 35 36 37 41 41 37 40 40 39 39 38 36 35 32 26 21 20 19 18 18 18 15 12 9 13 12 11 8 9 14 17
13 11 7 13 21 21 17 28 31 35 37 37 34 34 37 38 37 40 40 40 39 38 39 37 36 34 30 25 21 18 18 18 18 16 15 13 13 15 17 16 11 14 15 16
6 6 3 5 18 23 24 31 31 35 38 35 36 37 37 37 38 38 39 38 38 38 38 34 31 29 25 19 17 15 16 14 16 16 14 14 18 21 20 17 17 17 18 16
Wind_Direction
300 288 320 347 317 320 308 297 291 297 327 295 294 293 290 295 295 288 284 273 228 246 231 161 75 40 30 20 19 21 16 12 348 325 275 261 250 249 247 243 234 234 247 245
239 261 337 298 282 276 294 289 287 309 277 309 300 295 291 281 279 297 282 248 228 225 217 208 42 9 12 7 1 2 7 12 13 1 339 263 249 255 249 247 237 235 235 245
287 303 357 268 276 272 288 286 297 310 310 287 291 286 275 220 264 250 228 264 243 235 226 231 268 331 344 347 347 346 350 357 359 359 352 344 271 256 252 246 237 236 234 238
282 18 284 276 283 294 294 13 302 287 294 295 318 291 285 213 247 226 262 248 226 218 220 236 250 298 325 336 338 339 336 336 341 348 350 343 337 274 255 253 244 237 242 232
360 305 305 288 338 312 305 323 295 291 288 288 274 238 113 184 260 251 264 224 232 234 242 252 259 287 313 325 325 329 330 333 325 324 333 338 319 310 287 258 251 242 240 242
296 304 276 330 346 300 317 285 285 282 269 259 277 239 285 292 295 266 229 239 236 249 248 258 265 282 299 311 314 319 324 327 326 323 323 323 324 305 300 283 251 245 242 240
313 178 151 261 271 276 262 303 308 277 219 273 107 262 260 286 275 264 261 265 255 262 266 264 273 287 297 308 311 315 317 319 320 319 315 316 315 305 293 293 280 250 242 237
337 247 96 143 304 313 290 293 262 289 302 304 303 268 357 353 293 270 257 259 259 289 283 284 286 288 296 299 305 309 312 313 315 314 313 310 307 301 282 284 275 265 246 237
314 261 261 275 296 266 88 249 358 299 277 270 267 262 216 234 262 266 262 257 275 288 293 298 298 295 295 299 305 307 309 308 309 309 307 305 301 295 277 268 274 273 261 237
321 293 285 334 280 241 252 344 247 210 276 287 285 310 298 310 283 267 299 291 321 299 290 299 302 299 298 301 303 304 303 303 304 303 301 298 294 292 282 268 266 271 258 247
298 286 276 268 251 284 236 226 224 287 275 272 288 280 341 326 302 294 284 332 308 303 312 305 303 300 302 302 304 305 303 302 299 298 296 293 291 290 281 272 261 269 259 247
352 286 284 288 287 297 290 280 285 263 275 269 268 273 295 305 2 332 327 324 304 312 305 303 301 301 301 302 306 305 303 303 299 297 294 289 288 290 280 276 266 263 258 240
357 287 306 296 156 188 235 270 263 270 280 276 272 277 298 300 231 286 298 315 317 310 305 307 303 303 300 303 304 303 302 303 300 296 293 287 285 287 278 277 270 262 255 239
290 256 249 270 291 304 295 292 287 283 273 275 274 288 300 308 312 314 331 325 310 306 305 306 305 304 302 304 303 301 300 298 298 295 288 283 285 285 277 277 274 266 256 234
285 273 278 280 291 294 285 288 292 291 292 288 292 291 299 321 335 329 321 311 304 303 305 306 306 307 303 304 302 300 298 297 298 292 285 283 287 284 278 276 276 255 238 218
300 282 293 287 284 287 299 290 287 303 315 308 300 302 308 317 320 322 309 303 306 308 309 307 308 306 302 301 299 299 298 297 297 288 286 286 287 280 276 276 277 246 233 221
281 277 303 287 307 309 291 327 311 312 306 312 303 304 316 328 322 307 314 307 303 304 308 309 307 302 298 297 297 295 294 295 292 287 284 284 283 275 272 276 255 240 234 228
266 280 279 293 301 298 345 339 340 325 309 312 306 313 330 315 311 311 306 293 300 307 309 306 301 298 297 295 292 290 291 290 286 284 280 280 279 269 270 274 262 247 232 227
224 290 298 281 301 291 297 13 77 286 302 300 317 331 318 311 305 296 304 306 309 306 303 301 298 298 296 294 292 289 287 284 283 279 278 278 274 262 263 268 259 244 231 218
218 245 257 284 292 302 317 24 341 325 296 18 340 316 304 307 297 299 310 311 308 304 301 301 301 299 297 293 292 286 285 281 277 273 272 269 268 254 255 253 249 253 236 212
306 320 290 294 296 295 25 350 331 290 324 324 314 301 303 302 296 302 307 308 308 305 302 303 299 296 298 295 292 282 276 270 267 269 271 262 258 249 244 238 244 257 223 209
301 300 303 303 288 293 338 335 292 296 307 302 302 308 307 306 306 308 309 309 310 306 305 301 304 302 304 298 290 279 271 265 265 264 263 256 248 229 234 225 242 244 231 212
284 299 295 284 291 305 325 313 310 310 309 313 316 314 312 308 308 309 307 305 311 309 310 310 306 304 304 302 292 280 269 264 264 259 254 238 236 215 227 213 228 232 205 205
292 308 255 292 278 319 315 313 315 322 318 318 315 311 312 308 305 307 309 309 308 308 307 313 310 308 309 307 295 275 264 253 248 247 243 223 223 215 199 199 210 220 201 196
305 303 267 278 296 309 292 314 321 327 322 318 315 311 307 310 309 312 311 310 311 311 316 315 311 311 308 304 290 270 251 239 236 232 226 211 212 201 194 189 196 198 194 192
277 318 276 268 289 287 299 313 327 327 325 320 318 314 312 314 316 317 312 313 315 315 319 320 319 317 318 307 288 263 233 221 220 220 210 199 203 191 191 187 186 186 181 183